WAT3630 RJNS-PANC

Flight info

Callsign WAT3630
Flight time 4h 36m
Altitude 35000
Route XAC Y233 UTIBO Y803 POROT A590 PASRO/N0472F370 A590 HAMND NEELL7
Aircraft A346/H-SDE2E3FGHIJ3J4J5M1RWXY/LB1D1

Departure

Time 2026-04-26 15:53
Airport Mount Fuji Shizuoka Airport (RJNS)

Arrival

Time 2026-04-26 20:29
Airport Ted Stevens Anchorage International Airport (PANC)
Time Latitude Longitude Altitude Speed Heading
2026-04-26 15:36 34.79572 138.18105 471 ft 0 kts 201°
2026-04-26 15:44 34.79577 138.18106 471 ft 2 kts 201°
2026-04-26 15:44 34.79591 138.18114 471 ft 2 kts 207°
2026-04-26 15:45 34.79611 138.18140 470 ft 2 kts 248°
2026-04-26 15:45 34.79615 138.18156 469 ft 2 kts 266°
2026-04-26 15:46 34.79612 138.18184 466 ft 1 kts 294°
2026-04-26 15:46 34.79610 138.18188 466 ft 0 kts 293°
2026-04-26 15:48 34.79612 138.18184 466 ft 3 kts 293°
2026-04-26 15:48 34.79638 138.18150 470 ft 5 kts 329°
2026-04-26 15:49 34.79667 138.18132 471 ft 4 kts 324°
2026-04-26 15:49 34.79694 138.18102 472 ft 6 kts 307°
2026-04-26 15:50 34.79703 138.18083 472 ft 5 kts 289°
2026-04-26 15:50 34.79707 138.18045 474 ft 4 kts 282°
2026-04-26 15:50 34.79713 138.18016 476 ft 3 kts 282°
2026-04-26 15:51 34.79718 138.17987 477 ft 3 kts 284°
2026-04-26 15:51 34.79745 138.17900 479 ft 20 kts 292°
2026-04-26 15:51 34.79804 138.17744 483 ft 19 kts 298°
2026-04-26 15:51 34.79901 138.17650 480 ft 20 kts 356°
2026-04-26 15:52 34.79993 138.17780 461 ft 26 kts 100°
2026-04-26 15:52 34.79887 138.18100 459 ft 73 kts 111°
2026-04-26 15:52 34.79607 138.18956 434 ft 142 kts 113°
2026-04-26 15:52 34.79310 138.19785 411 ft 179 kts 109°
2026-04-26 15:53 34.78642 138.21690 1181 ft 184 kts 112°
2026-04-26 15:53 34.78093 138.23085 1844 ft 184 kts 114°
2026-04-26 15:53 34.77529 138.24455 2431 ft 182 kts 113°
2026-04-26 15:53 34.77025 138.25934 2715 ft 194 kts 99°
2026-04-26 15:54 34.76905 138.27612 3071 ft 204 kts 90°
2026-04-26 15:54 34.76872 138.29411 3400 ft 222 kts 91°
2026-04-26 15:54 34.76826 138.31370 3791 ft 238 kts 92°
2026-04-26 15:54 34.76762 138.33434 4402 ft 246 kts 94°
2026-04-26 15:55 34.76685 138.35504 5165 ft 249 kts 95°
2026-04-26 15:55 34.76595 138.37619 5891 ft 252 kts 96°
2026-04-26 15:55 34.76500 138.39754 6547 ft 257 kts 96°
2026-04-26 15:55 34.76398 138.41962 7224 ft 262 kts 97°
2026-04-26 15:56 34.76291 138.44189 7859 ft 268 kts 97°
2026-04-26 15:56 34.76177 138.46466 8498 ft 273 kts 97°
2026-04-26 15:56 34.76064 138.48789 9130 ft 278 kts 97°
2026-04-26 15:56 34.75948 138.51152 9707 ft 284 kts 98°
2026-04-26 15:57 34.75827 138.53603 10265 ft 291 kts 98°
2026-04-26 15:57 34.75701 138.56081 10579 ft 306 kts 98°
2026-04-26 15:57 34.75563 138.58733 10864 ft 322 kts 97°
2026-04-26 15:57 34.75469 138.60576 11049 ft 333 kts 97°
2026-04-26 15:58 34.75272 138.64445 11417 ft 354 kts 97°
2026-04-26 15:58 34.75121 138.67459 11684 ft 370 kts 97°
2026-04-26 15:58 34.74962 138.70644 12036 ft 382 kts 97°
2026-04-26 15:58 34.74802 138.73898 12610 ft 388 kts 97°
2026-04-26 15:59 34.74640 138.77174 13249 ft 391 kts 98°
2026-04-26 15:59 34.74475 138.80461 13832 ft 395 kts 98°
2026-04-26 15:59 34.74303 138.83823 14395 ft 400 kts 98°
2026-04-26 15:59 34.74127 138.87192 14932 ft 405 kts 98°
2026-04-26 16:00 34.73946 138.90680 15464 ft 410 kts 98°
2026-04-26 16:00 34.73764 138.94168 16000 ft 415 kts 98°
2026-04-26 16:00 34.73580 138.97652 16507 ft 419 kts 97°
2026-04-26 16:00 34.73392 139.01195 17014 ft 423 kts 98°
2026-04-26 16:01 34.73201 139.04813 17488 ft 429 kts 98°
2026-04-26 16:01 34.73010 139.08405 17954 ft 434 kts 98°
2026-04-26 16:01 34.72810 139.12097 18404 ft 439 kts 98°
2026-04-26 16:01 34.72613 139.15779 18866 ft 443 kts 98°
2026-04-26 16:02 34.72413 139.19508 19349 ft 446 kts 98°
2026-04-26 16:02 34.72206 139.23306 19809 ft 450 kts 98°
2026-04-26 16:02 34.72000 139.27109 20256 ft 455 kts 98°
2026-04-26 16:02 34.71860 139.29658 20538 ft 458 kts 98°
2026-04-26 16:03 34.71573 139.34796 21083 ft 463 kts 98°
2026-04-26 16:03 34.71522 139.38756 21506 ft 473 kts 89°
2026-04-26 16:03 34.72149 139.42656 21915 ft 483 kts 75°
2026-04-26 16:03 34.73496 139.46410 22320 ft 491 kts 63°
2026-04-26 16:04 34.75252 139.50017 22733 ft 496 kts 60°
2026-04-26 16:04 34.77071 139.53597 23070 ft 501 kts 60°
2026-04-26 16:04 34.78902 139.57219 23485 ft 505 kts 60°
2026-04-26 16:04 34.80720 139.60870 23925 ft 507 kts 61°
2026-04-26 16:05 34.82522 139.64531 24341 ft 510 kts 61°
2026-04-26 16:05 34.84325 139.68234 24683 ft 515 kts 62°
2026-04-26 16:05 34.86142 139.71986 25054 ft 518 kts 62°
2026-04-26 16:05 34.87994 139.75816 25411 ft 522 kts 62°
2026-04-26 16:06 34.89838 139.79628 25767 ft 526 kts 62°
2026-04-26 16:06 34.91690 139.83461 26093 ft 530 kts 62°
2026-04-26 16:06 34.93453 139.87422 26397 ft 532 kts 68°
2026-04-26 16:06 34.94878 139.91557 26739 ft 532 kts 74°
2026-04-26 16:07 34.95951 139.95857 27097 ft 531 kts 80°
2026-04-26 16:07 34.96815 140.00224 27400 ft 534 kts 82°
2026-04-26 16:07 34.97634 140.04617 27789 ft 535 kts 82°
2026-04-26 16:07 34.98458 140.09050 28325 ft 534 kts 82°
2026-04-26 16:08 34.99280 140.13434 28808 ft 534 kts 82°
2026-04-26 16:08 34.99833 140.16341 29079 ft 534 kts 82°
2026-04-26 16:08 35.00956 140.22212 29679 ft 534 kts 82°
2026-04-26 16:08 35.01800 140.26592 30139 ft 534 kts 81°
2026-04-26 16:09 35.02643 140.30974 30600 ft 534 kts 82°
2026-04-26 16:09 35.03497 140.35402 31067 ft 533 kts 82°
2026-04-26 16:09 35.04339 140.39781 31468 ft 534 kts 81°
2026-04-26 16:09 35.05183 140.44208 31833 ft 535 kts 82°
2026-04-26 16:10 35.06029 140.48636 32216 ft 536 kts 82°
2026-04-26 16:10 35.06889 140.53040 32642 ft 536 kts 80°
2026-04-26 16:10 35.07910 140.57417 33057 ft 538 kts 76°
2026-04-26 16:10 35.09147 140.61729 33401 ft 541 kts 71°
2026-04-26 16:11 35.10551 140.66025 33662 ft 544 kts 72°
2026-04-26 16:11 35.12004 140.70277 33864 ft 547 kts 71°
2026-04-26 16:11 35.13469 140.74554 34079 ft 549 kts 71°
2026-04-26 16:11 35.14937 140.78853 34342 ft 550 kts 71°
2026-04-26 16:12 35.16384 140.83151 34605 ft 551 kts 71°
2026-04-26 16:12 35.17827 140.87468 34865 ft 552 kts 72°
2026-04-26 16:12 35.20737 140.96239 34958 ft 555 kts 71°
2026-04-26 16:13 35.23620 141.04941 34965 ft 555 kts 71°
2026-04-26 16:13 35.26507 141.13711 34968 ft 557 kts 71°
2026-04-26 16:14 35.29398 141.22505 34969 ft 556 kts 71°
2026-04-26 16:15 35.33717 141.35680 34979 ft 557 kts 71°
2026-04-26 16:15 35.36581 141.44463 34977 ft 557 kts 71°
2026-04-26 16:16 35.40885 141.57706 34983 ft 558 kts 70°
2026-04-26 16:16 35.43750 141.66542 34983 ft 558 kts 71°
2026-04-26 16:17 35.46597 141.75382 34991 ft 558 kts 71°
2026-04-26 16:17 35.49430 141.84192 34993 ft 557 kts 71°
2026-04-26 16:18 35.53690 141.97467 34990 ft 557 kts 70°
2026-04-26 16:19 35.57945 142.10800 34996 ft 559 kts 71°
2026-04-26 16:20 35.62180 142.24116 34991 ft 558 kts 70°
2026-04-26 16:20 35.66389 142.37408 35000 ft 558 kts 70°
2026-04-26 16:21 35.69208 142.46330 34997 ft 558 kts 70°
2026-04-26 16:21 35.72007 142.55237 35007 ft 559 kts 70°
2026-04-26 16:22 35.74800 142.64149 35001 ft 559 kts 70°
2026-04-26 16:22 35.77589 142.73082 35001 ft 559 kts 71°
2026-04-26 16:23 35.80344 142.81953 35007 ft 558 kts 71°
2026-04-26 16:23 35.83125 142.90898 35008 ft 558 kts 70°
2026-04-26 16:24 35.85896 142.99841 35011 ft 559 kts 70°
2026-04-26 16:24 35.88659 143.08783 34999 ft 559 kts 71°
2026-04-26 16:25 35.91880 143.17496 35006 ft 559 kts 59°
2026-04-26 16:25 35.96438 143.25200 35012 ft 556 kts 45°
2026-04-26 16:26 36.01098 143.30542 35017 ft 550 kts 33°
2026-04-26 16:26 36.08286 143.37045 35023 ft 549 kts 31°
2026-04-26 16:27 36.14512 143.42616 35018 ft 551 kts 31°
2026-04-26 16:27 36.20696 143.48250 35030 ft 551 kts 32°
2026-04-26 16:28 36.26846 143.53919 35032 ft 551 kts 32°
2026-04-26 16:28 36.32982 143.59598 35033 ft 551 kts 32°
2026-04-26 16:29 36.39114 143.65280 35034 ft 551 kts 32°
2026-04-26 16:29 36.45226 143.70979 35037 ft 552 kts 33°
2026-04-26 16:30 36.51397 143.76756 35041 ft 552 kts 33°
2026-04-26 16:30 36.57509 143.82469 35037 ft 552 kts 32°
2026-04-26 16:31 36.63657 143.88209 35043 ft 552 kts 32°
2026-04-26 16:31 36.69804 143.93959 35043 ft 552 kts 32°
2026-04-26 16:32 36.74901 143.98746 35042 ft 551 kts 32°
2026-04-26 16:32 36.82048 144.05458 35049 ft 552 kts 32°
2026-04-26 16:33 36.88183 144.11237 35051 ft 551 kts 32°
2026-04-26 16:33 36.94271 144.16989 35057 ft 549 kts 31°
2026-04-26 16:34 37.00388 144.22760 35055 ft 552 kts 32°
2026-04-26 16:34 37.06507 144.28571 35054 ft 551 kts 32°
2026-04-26 16:35 37.12579 144.34354 35057 ft 550 kts 31°
2026-04-26 16:35 37.18695 144.40161 35062 ft 551 kts 32°
2026-04-26 16:36 37.24811 144.45995 35063 ft 552 kts 31°
2026-04-26 16:36 37.30908 144.51839 35067 ft 552 kts 31°
2026-04-26 16:37 37.37002 144.57692 35061 ft 552 kts 32°
2026-04-26 16:37 37.42102 144.62596 35070 ft 553 kts 32°
2026-04-26 16:38 37.49196 144.69455 35069 ft 552 kts 32°
2026-04-26 16:38 37.55240 144.75330 35074 ft 552 kts 32°
2026-04-26 16:39 37.61351 144.81258 35076 ft 553 kts 32°
2026-04-26 16:39 37.67428 144.87164 35084 ft 551 kts 32°
2026-04-26 16:40 37.73495 144.93062 35089 ft 551 kts 32°
2026-04-26 16:40 37.79607 144.99013 35089 ft 551 kts 32°
2026-04-26 16:41 37.85637 145.04909 35090 ft 549 kts 32°
2026-04-26 16:41 37.91691 145.10831 35089 ft 549 kts 32°
2026-04-26 16:42 37.97746 145.16780 35096 ft 550 kts 32°
2026-04-26 16:42 38.03787 145.22704 35090 ft 552 kts 32°
2026-04-26 16:43 38.09866 145.28693 35089 ft 554 kts 32°
2026-04-26 16:43 38.15919 145.34659 35094 ft 552 kts 31°
2026-04-26 16:44 38.21986 145.40639 35097 ft 552 kts 32°
2026-04-26 16:44 38.28043 145.46649 35099 ft 553 kts 32°
2026-04-26 16:45 38.34058 145.52776 35105 ft 556 kts 36°
2026-04-26 16:45 38.39785 145.59402 35108 ft 558 kts 37°
2026-04-26 16:46 38.45457 145.66147 35104 ft 557 kts 38°
2026-04-26 16:46 38.51098 145.72879 35111 ft 557 kts 38°
2026-04-26 16:47 38.56764 145.79611 35117 ft 560 kts 38°
2026-04-26 16:47 38.62450 145.86372 35120 ft 559 kts 37°
2026-04-26 16:48 38.68159 145.93167 35121 ft 559 kts 37°
2026-04-26 16:48 38.73860 145.99962 35122 ft 560 kts 37°
2026-04-26 16:49 38.79564 146.06775 35124 ft 560 kts 37°
2026-04-26 16:49 38.85236 146.13570 35126 ft 560 kts 37°
2026-04-26 16:50 38.90942 146.20418 35126 ft 560 kts 37°
2026-04-26 16:50 39.21683 146.57695 35109 ft 560 kts 36°
2026-04-26 16:51 40.12124 147.69969 35222 ft 563 kts 37°
2026-04-26 16:51 41.01416 148.85051 35163 ft 564 kts 36°
2026-04-26 16:52 41.26708 149.18311 35151 ft 567 kts 35°
2026-04-26 16:52 41.33111 149.26907 35177 ft 564 kts 35°
2026-04-26 16:53 41.61199 149.64684 35221 ft 560 kts 35°
2026-04-26 16:53 42.47320 150.83551 34980 ft 548 kts 37°
2026-04-26 16:54 42.89001 151.43089 35308 ft 543 kts 38°
2026-04-26 16:54 43.29900 152.02589 35268 ft 538 kts 39°
2026-04-26 16:54 44.09722 153.22578 35227 ft 525 kts 40°
2026-04-26 16:55 44.86678 154.43155 35202 ft 515 kts 42°
2026-04-26 16:55 45.60343 155.66782 35213 ft 508 kts 43°
2026-04-26 16:56 46.43243 157.12500 35182 ft 509 kts 43°
2026-04-26 16:57 46.47674 157.20519 35164 ft 509 kts 43°
2026-04-26 16:57 46.54290 157.32532 35159 ft 510 kts 43°
2026-04-26 16:58 46.57944 157.39186 35163 ft 510 kts 43°
2026-04-26 16:59 46.65290 157.52615 35156 ft 510 kts 42°
2026-04-26 17:00 46.74045 157.68715 35158 ft 511 kts 43°
2026-04-26 17:00 46.80644 157.80955 35164 ft 512 kts 43°
2026-04-26 17:01 46.85012 157.89066 35164 ft 511 kts 43°
2026-04-26 17:01 46.89392 157.97215 35164 ft 511 kts 43°
2026-04-26 17:02 46.93735 158.05316 35166 ft 511 kts 42°
2026-04-26 17:02 46.98105 158.13484 35170 ft 511 kts 42°
2026-04-26 17:03 47.02486 158.21704 35165 ft 512 kts 42°
2026-04-26 17:03 47.06836 158.29894 35166 ft 511 kts 42°
2026-04-26 17:04 47.11169 158.38068 35165 ft 510 kts 41°
2026-04-26 17:04 47.15530 158.46266 35163 ft 510 kts 41°
2026-04-26 17:05 47.19846 158.54431 35159 ft 510 kts 41°
2026-04-26 17:05 47.24165 158.62645 35156 ft 510 kts 41°
2026-04-26 17:06 47.28495 158.70932 35149 ft 512 kts 42°
2026-04-26 17:06 47.32815 158.79245 35159 ft 511 kts 42°
2026-04-26 17:07 47.37104 158.87500 35150 ft 511 kts 42°
2026-04-26 17:07 47.41400 158.95790 35147 ft 511 kts 42°
2026-04-26 17:08 47.45697 159.04095 35145 ft 510 kts 42°
2026-04-26 17:08 47.49984 159.12405 35141 ft 510 kts 41°
2026-04-26 17:09 47.53566 159.19368 35140 ft 510 kts 41°
2026-04-26 17:09 47.58557 159.29103 35137 ft 510 kts 41°
2026-04-26 17:10 47.62815 159.37433 35134 ft 511 kts 41°
2026-04-26 17:10 47.67086 159.45827 35136 ft 509 kts 41°
2026-04-26 17:11 47.71315 159.54147 35118 ft 508 kts 41°
2026-04-26 17:11 47.75554 159.62515 35121 ft 508 kts 41°
2026-04-26 17:12 47.81876 159.75084 35110 ft 509 kts 42°
2026-04-26 17:13 47.88211 159.87730 35116 ft 509 kts 41°
2026-04-26 17:14 47.94503 160.00319 35111 ft 508 kts 41°
2026-04-26 17:14 48.00796 160.12976 35110 ft 507 kts 41°
2026-04-26 17:15 48.07091 160.25676 35097 ft 508 kts 41°
2026-04-26 17:16 48.11245 160.34093 35117 ft 507 kts 41°
2026-04-26 17:16 48.15434 160.42555 35096 ft 506 kts 41°
2026-04-26 17:17 48.19599 160.51031 35087 ft 506 kts 42°
2026-04-26 17:17 48.23725 160.59483 35076 ft 506 kts 42°
2026-04-26 17:18 48.27869 160.68001 35091 ft 507 kts 43°
2026-04-26 17:18 48.31900 160.76642 35086 ft 509 kts 45°
2026-04-26 17:19 48.37916 160.89790 35085 ft 510 kts 45°
2026-04-26 17:19 48.41925 160.98550 35079 ft 510 kts 45°
2026-04-26 17:20 48.44581 161.04369 35082 ft 507 kts 45°
2026-04-26 17:20 48.49894 161.16010 35064 ft 508 kts 45°
2026-04-26 17:21 48.53890 161.24805 35081 ft 509 kts 45°
2026-04-26 17:21 48.57860 161.33575 35046 ft 507 kts 45°
2026-04-26 17:22 48.61819 161.42348 35074 ft 506 kts 45°
2026-04-26 17:22 48.65769 161.51119 35050 ft 507 kts 46°
2026-04-26 17:23 48.69692 161.59869 35063 ft 507 kts 45°
2026-04-26 17:23 48.73625 161.68677 35042 ft 507 kts 46°
2026-04-26 17:24 48.77541 161.77510 35049 ft 506 kts 47°
2026-04-26 17:24 48.81473 161.86380 35049 ft 507 kts 47°
2026-04-26 17:25 48.85373 161.95200 35066 ft 507 kts 47°
2026-04-26 17:25 49.14487 162.61821 35077 ft 506 kts 47°
2026-04-26 17:26 49.74614 164.05200 34988 ft 501 kts 51°
2026-04-26 17:26 50.31092 165.47463 34934 ft 498 kts 53°
2026-04-26 17:27 50.34581 165.56782 35124 ft 501 kts 54°
2026-04-26 17:27 50.36327 165.61458 35410 ft 499 kts 54°
2026-04-26 17:27 50.38070 165.66113 35687 ft 497 kts 55°
2026-04-26 17:28 50.39821 165.70795 35919 ft 496 kts 55°
2026-04-26 17:28 50.41552 165.75423 36086 ft 497 kts 55°
2026-04-26 17:28 50.43307 165.80106 36261 ft 497 kts 55°
2026-04-26 17:28 50.45041 165.84735 36442 ft 497 kts 55°
2026-04-26 17:29 50.46773 165.89360 36602 ft 497 kts 55°
2026-04-26 17:29 50.47937 165.92474 36734 ft 497 kts 55°
2026-04-26 17:29 50.50256 165.98682 36916 ft 497 kts 55°
2026-04-26 17:29 50.51997 166.03346 36929 ft 497 kts 56°
2026-04-26 17:30 50.55492 166.12743 36944 ft 497 kts 56°
2026-04-26 17:30 50.58934 166.22029 36943 ft 497 kts 56°
2026-04-26 17:31 50.62406 166.31424 36940 ft 496 kts 56°
2026-04-26 17:31 50.65839 166.40756 36942 ft 496 kts 56°
2026-04-26 17:32 50.69295 166.50179 36943 ft 496 kts 56°
2026-04-26 17:32 50.72731 166.59586 36936 ft 495 kts 56°
2026-04-26 17:33 50.76134 166.68936 36930 ft 495 kts 57°
2026-04-26 17:34 50.81237 166.83067 36922 ft 496 kts 57°
2026-04-26 17:34 50.84633 166.92493 36929 ft 496 kts 57°
2026-04-26 17:35 50.88024 167.01933 36924 ft 495 kts 57°
2026-04-26 17:35 50.91407 167.11386 36923 ft 495 kts 57°
2026-04-26 17:36 50.94792 167.20872 36911 ft 494 kts 57°
2026-04-26 17:36 50.98152 167.30328 36906 ft 494 kts 57°
2026-04-26 17:37 51.01510 167.39809 36905 ft 494 kts 57°
2026-04-26 17:37 51.04842 167.49260 36907 ft 494 kts 57°
2026-04-26 17:38 51.09856 167.63539 36898 ft 494 kts 57°
2026-04-26 17:38 51.13176 167.72994 36903 ft 494 kts 57°
2026-04-26 17:39 51.16512 167.82542 36893 ft 494 kts 58°
2026-04-26 17:39 51.19831 167.92097 36888 ft 494 kts 58°
2026-04-26 17:40 51.22027 167.98448 36891 ft 493 kts 58°
2026-04-26 17:40 51.26400 168.11142 36889 ft 493 kts 58°
2026-04-26 17:41 51.29689 168.20737 36887 ft 493 kts 58°
2026-04-26 17:41 51.32966 168.30325 36881 ft 493 kts 58°
2026-04-26 17:42 51.36219 168.39887 36879 ft 493 kts 58°
2026-04-26 17:42 51.39478 168.49501 36878 ft 493 kts 58°
2026-04-26 17:43 51.42735 168.59146 36871 ft 492 kts 58°
2026-04-26 17:43 51.45951 168.68710 36867 ft 492 kts 59°
2026-04-26 17:44 51.49189 168.78406 36865 ft 493 kts 59°
2026-04-26 17:44 51.52412 168.88080 36860 ft 493 kts 59°
2026-04-26 17:45 51.55618 168.97729 36861 ft 493 kts 59°
2026-04-26 17:45 51.58821 169.07404 36857 ft 493 kts 59°
2026-04-26 17:46 51.62024 169.17111 36853 ft 493 kts 59°
2026-04-26 17:46 51.65219 169.26831 36852 ft 493 kts 59°
2026-04-26 17:47 51.67346 169.33322 36846 ft 493 kts 59°
2026-04-26 17:47 51.71578 169.46286 36837 ft 493 kts 59°
2026-04-26 17:48 51.74744 169.56039 36834 ft 492 kts 59°
2026-04-26 17:48 51.77901 169.65799 36833 ft 492 kts 60°
2026-04-26 17:49 51.81031 169.75542 36826 ft 492 kts 60°
2026-04-26 17:49 51.84150 169.85284 36824 ft 492 kts 60°
2026-04-26 17:50 51.87296 169.95128 36825 ft 492 kts 60°
2026-04-26 17:50 51.90405 170.04890 36823 ft 492 kts 60°
2026-04-26 17:51 51.93515 170.14694 36825 ft 491 kts 60°
2026-04-26 17:51 51.96627 170.24545 36821 ft 491 kts 60°
2026-04-26 17:52 51.99718 170.34364 36816 ft 490 kts 60°
2026-04-26 17:52 52.02797 170.44182 36819 ft 490 kts 60°
2026-04-26 17:53 52.05848 170.53944 36814 ft 489 kts 60°
2026-04-26 17:54 52.10566 170.68620 36809 ft 487 kts 57°
2026-04-26 17:54 52.14276 170.77716 36809 ft 485 kts 51°
2026-04-26 17:55 52.18500 170.86156 36802 ft 484 kts 46°
2026-04-26 17:55 52.22914 170.94470 36803 ft 483 kts 46°
2026-04-26 17:56 52.27283 171.02722 36791 ft 483 kts 46°
2026-04-26 17:57 52.35976 171.19278 36768 ft 482 kts 47°
2026-04-26 17:57 52.40321 171.27602 36763 ft 481 kts 47°
2026-04-26 17:58 52.48958 171.44237 36749 ft 481 kts 47°
2026-04-26 17:59 52.55403 171.56718 36742 ft 481 kts 47°
2026-04-26 17:59 52.59716 171.65103 36732 ft 481 kts 48°
2026-04-26 18:00 52.63987 171.73467 36722 ft 481 kts 48°
2026-04-26 18:00 52.68276 171.81888 36715 ft 480 kts 48°
2026-04-26 18:01 52.72550 171.90295 36716 ft 479 kts 48°
2026-04-26 18:01 52.76798 171.98673 36722 ft 478 kts 48°
2026-04-26 18:02 52.79624 172.04259 36718 ft 478 kts 48°
2026-04-26 18:02 52.85279 172.15469 36721 ft 479 kts 48°
2026-04-26 18:03 52.89528 172.23930 36717 ft 480 kts 48°
2026-04-26 18:03 52.93784 172.32433 36710 ft 480 kts 48°
2026-04-26 18:04 52.98028 172.40939 36710 ft 479 kts 48°
2026-04-26 18:05 53.04340 172.53647 36704 ft 479 kts 48°
2026-04-26 18:05 53.08571 172.62198 36697 ft 479 kts 48°
2026-04-26 18:06 53.12775 172.70712 36687 ft 479 kts 49°
2026-04-26 18:06 53.16975 172.79234 36678 ft 478 kts 49°
2026-04-26 18:07 53.21186 172.87825 36679 ft 478 kts 49°
2026-04-26 18:07 53.25353 172.96361 36686 ft 478 kts 49°
2026-04-26 18:08 53.29528 173.04945 36678 ft 477 kts 49°
2026-04-26 18:08 53.33683 173.13521 36665 ft 477 kts 49°
2026-04-26 18:09 53.37843 173.22134 36654 ft 476 kts 49°
2026-04-26 18:09 53.41987 173.30742 36652 ft 476 kts 49°
2026-04-26 18:10 53.46095 173.39304 36635 ft 475 kts 50°
2026-04-26 18:10 53.50225 173.47949 36630 ft 475 kts 50°
2026-04-26 18:11 53.54190 173.56741 36626 ft 476 kts 54°
2026-04-26 18:11 53.57798 173.66052 36623 ft 475 kts 56°
2026-04-26 18:12 53.61321 173.75380 36612 ft 475 kts 56°
2026-04-26 18:12 53.64851 173.84738 36601 ft 475 kts 56°
2026-04-26 18:13 53.68386 173.94113 36600 ft 475 kts 56°
2026-04-26 18:13 53.71898 174.03453 36587 ft 475 kts 56°
2026-04-26 18:14 53.75405 174.12814 36578 ft 474 kts 56°
2026-04-26 18:14 53.78910 174.22203 36578 ft 474 kts 56°
2026-04-26 18:15 53.82402 174.31590 36560 ft 473 kts 56°
2026-04-26 18:15 53.85904 174.41043 36542 ft 474 kts 56°
2026-04-26 18:16 53.89367 174.50423 36530 ft 474 kts 56°
2026-04-26 18:16 53.94581 174.64610 36518 ft 474 kts 56°
2026-04-26 18:17 53.98029 174.74066 36508 ft 473 kts 57°
2026-04-26 18:17 54.01474 174.83550 36496 ft 472 kts 57°
2026-04-26 18:18 54.04919 174.93051 36499 ft 472 kts 57°
2026-04-26 18:18 54.08332 175.02492 36497 ft 473 kts 57°
2026-04-26 18:19 54.11776 175.12030 36501 ft 472 kts 57°
2026-04-26 18:19 54.15193 175.21471 36490 ft 472 kts 57°
2026-04-26 18:20 54.18611 175.30995 36479 ft 471 kts 57°
2026-04-26 18:20 54.20882 175.37360 36466 ft 470 kts 57°
2026-04-26 18:21 54.25379 175.50023 36443 ft 470 kts 57°
2026-04-26 18:21 54.28738 175.59532 36443 ft 470 kts 57°
2026-04-26 18:22 54.32096 175.69080 36428 ft 470 kts 58°
2026-04-26 18:22 54.35423 175.78601 36420 ft 470 kts 58°
2026-04-26 18:23 54.38771 175.88205 36411 ft 470 kts 58°
2026-04-26 18:23 54.42091 175.97754 36400 ft 468 kts 58°
2026-04-26 18:24 54.45414 176.07347 36389 ft 468 kts 58°
2026-04-26 18:24 54.48724 176.16940 36385 ft 468 kts 58°
2026-04-26 18:25 54.52000 176.26468 36386 ft 467 kts 58°
2026-04-26 18:25 54.53314 176.30299 36376 ft 467 kts 58°
2026-04-26 18:26 54.56600 176.39909 36366 ft 468 kts 58°
2026-04-26 18:26 54.59890 176.49564 36361 ft 468 kts 58°
2026-04-26 18:27 54.63168 176.59225 36339 ft 467 kts 58°
2026-04-26 18:27 54.66422 176.68866 36338 ft 467 kts 59°
2026-04-26 18:28 54.69653 176.78494 36330 ft 467 kts 59°
2026-04-26 18:28 54.72897 176.88190 36323 ft 467 kts 59°
2026-04-26 18:29 54.76146 176.97926 36322 ft 467 kts 59°
2026-04-26 18:29 54.79379 177.07649 36304 ft 467 kts 59°
2026-04-26 18:30 54.82608 177.17397 36285 ft 467 kts 59°
2026-04-26 18:30 54.85804 177.27083 36283 ft 467 kts 59°
2026-04-26 18:31 54.89008 177.36832 36250 ft 466 kts 59°
2026-04-26 18:31 54.92207 177.46608 36250 ft 466 kts 59°
2026-04-26 18:32 54.95390 177.56375 36230 ft 466 kts 59°
2026-04-26 18:32 54.98557 177.66132 36225 ft 466 kts 60°
2026-04-26 18:33 55.01715 177.75928 36206 ft 466 kts 60°
2026-04-26 18:33 55.04858 177.85706 36206 ft 466 kts 60°
2026-04-26 18:34 55.08009 177.95534 36200 ft 466 kts 60°
2026-04-26 18:34 55.11164 178.05400 36180 ft 466 kts 59°
2026-04-26 18:35 55.14311 178.15199 36170 ft 466 kts 60°
2026-04-26 18:35 55.17446 178.25053 36171 ft 466 kts 60°
2026-04-26 18:36 55.20589 178.35002 36162 ft 467 kts 60°
2026-04-26 18:36 55.23684 178.44852 36140 ft 467 kts 60°
2026-04-26 18:37 55.26808 178.54835 36135 ft 467 kts 60°
2026-04-26 18:37 55.29894 178.64748 36116 ft 467 kts 60°
2026-04-26 18:38 55.32991 178.74756 36108 ft 467 kts 61°
2026-04-26 18:38 55.36081 178.84723 36097 ft 467 kts 60°
2026-04-26 18:39 55.39166 178.94702 36093 ft 467 kts 60°
2026-04-26 18:39 55.42270 179.04767 36093 ft 467 kts 61°
2026-04-26 18:40 55.45325 179.14722 36078 ft 467 kts 61°
2026-04-26 18:40 55.48406 179.24806 36053 ft 468 kts 61°
2026-04-26 18:41 55.51472 179.34886 36042 ft 468 kts 61°
2026-04-26 18:41 55.54519 179.44951 36034 ft 469 kts 61°
2026-04-26 18:42 55.57563 179.55045 36018 ft 468 kts 61°
2026-04-26 18:42 55.60611 179.65192 36007 ft 468 kts 62°
2026-04-26 18:43 55.63636 179.75336 36007 ft 469 kts 62°
2026-04-26 18:43 55.66656 179.85501 35991 ft 469 kts 62°
2026-04-26 18:44 55.69682 179.95715 35972 ft 468 kts 62°
2026-04-26 18:44 55.72677 -179.94138 35965 ft 469 kts 62°
2026-04-26 18:45 55.75676 -179.83931 35947 ft 469 kts 62°
2026-04-26 18:45 55.78676 -179.73677 35944 ft 470 kts 62°
2026-04-26 18:46 55.81665 -179.63420 35929 ft 470 kts 62°
2026-04-26 18:46 55.84659 -179.53096 35921 ft 470 kts 62°
2026-04-26 18:47 55.87620 -179.42828 35914 ft 470 kts 63°
2026-04-26 18:47 55.90568 -179.32546 35904 ft 470 kts 63°
2026-04-26 18:48 55.93530 -179.22186 35891 ft 470 kts 63°
2026-04-26 18:48 55.96499 -179.11758 35880 ft 471 kts 63°
2026-04-26 18:49 55.99446 -179.01369 35864 ft 471 kts 63°
2026-04-26 18:49 56.02385 -178.90962 35858 ft 471 kts 63°
2026-04-26 18:50 56.05302 -178.80586 35855 ft 471 kts 63°
2026-04-26 18:50 56.08217 -178.70171 35858 ft 471 kts 63°
2026-04-26 18:51 56.11134 -178.59724 35851 ft 472 kts 63°
2026-04-26 18:51 56.14085 -178.49193 35847 ft 472 kts 64°
2026-04-26 18:52 56.16981 -178.38733 35834 ft 471 kts 64°
2026-04-26 18:52 56.19865 -178.28239 35830 ft 471 kts 64°
2026-04-26 18:53 56.22747 -178.17700 35824 ft 471 kts 64°
2026-04-26 18:53 56.25606 -178.07202 35815 ft 472 kts 65°
2026-04-26 18:54 56.28474 -177.96619 35815 ft 473 kts 65°
2026-04-26 18:54 56.31341 -177.85992 35797 ft 473 kts 65°
2026-04-26 18:55 56.34193 -177.75374 35786 ft 472 kts 65°
2026-04-26 18:55 56.37037 -177.64726 35784 ft 472 kts 65°
2026-04-26 18:56 56.39870 -177.54073 35788 ft 472 kts 65°
2026-04-26 18:56 56.42697 -177.43396 35782 ft 472 kts 65°
2026-04-26 18:57 56.45034 -177.34529 35770 ft 472 kts 66°
2026-04-26 18:57 56.48312 -177.22003 35760 ft 472 kts 66°
2026-04-26 18:58 56.51107 -177.11275 35752 ft 473 kts 66°
2026-04-26 18:58 56.53886 -177.00572 35753 ft 473 kts 66°
2026-04-26 18:59 56.56654 -176.89867 35742 ft 473 kts 66°
2026-04-26 18:59 56.59424 -176.79103 35734 ft 473 kts 66°
2026-04-26 19:00 56.62192 -176.68291 35731 ft 474 kts 66°
2026-04-26 19:00 56.64940 -176.57504 35735 ft 474 kts 66°
2026-04-26 19:01 56.67683 -176.46689 35727 ft 474 kts 66°
2026-04-26 19:01 56.70422 -176.35840 35725 ft 473 kts 66°
2026-04-26 19:02 56.73138 -176.25001 35712 ft 473 kts 67°
2026-04-26 19:02 56.75411 -176.15897 35708 ft 474 kts 67°
2026-04-26 19:03 56.78581 -176.03166 35702 ft 475 kts 67°
2026-04-26 19:03 56.80996 -175.93411 35708 ft 475 kts 67°
2026-04-26 19:04 56.83523 -175.83128 35710 ft 475 kts 67°
2026-04-26 19:04 56.86206 -175.72096 35698 ft 475 kts 67°
2026-04-26 19:05 56.90181 -175.55682 35689 ft 475 kts 67°
2026-04-26 19:06 56.92842 -175.44638 35692 ft 475 kts 67°
2026-04-26 19:06 56.95494 -175.33578 35694 ft 476 kts 68°
2026-04-26 19:07 56.98114 -175.22574 35699 ft 476 kts 68°
2026-04-26 19:07 57.00745 -175.11475 35694 ft 476 kts 68°
2026-04-26 19:08 57.03377 -175.00317 35690 ft 476 kts 68°
2026-04-26 19:08 57.05982 -174.89232 35693 ft 476 kts 68°
2026-04-26 19:09 57.08586 -174.78091 35691 ft 476 kts 68°
2026-04-26 19:09 57.11173 -174.67004 35695 ft 477 kts 68°
2026-04-26 19:10 57.13786 -174.55838 35693 ft 477 kts 68°
2026-04-26 19:10 57.16385 -174.44609 35699 ft 477 kts 69°
2026-04-26 19:11 57.18955 -174.33394 35701 ft 477 kts 70°
2026-04-26 19:11 57.21502 -174.22183 35701 ft 477 kts 70°
2026-04-26 19:12 57.24037 -174.10973 35701 ft 477 kts 70°
2026-04-26 19:12 57.26589 -173.99646 35704 ft 477 kts 70°
2026-04-26 19:13 57.29104 -173.88422 35707 ft 477 kts 70°
2026-04-26 19:13 57.31627 -173.77101 35719 ft 477 kts 70°
2026-04-26 19:14 57.34135 -173.65813 35724 ft 478 kts 69°
2026-04-26 19:14 57.36701 -173.54517 35736 ft 478 kts 69°
2026-04-26 19:15 57.39264 -173.43219 35744 ft 478 kts 69°
2026-04-26 19:15 57.41820 -173.31869 35737 ft 478 kts 70°
2026-04-26 19:16 57.44349 -173.20544 35746 ft 478 kts 70°
2026-04-26 19:16 57.46869 -173.09213 35758 ft 477 kts 70°
2026-04-26 19:17 57.49383 -172.97845 35770 ft 478 kts 70°
2026-04-26 19:17 57.51884 -172.86482 35776 ft 478 kts 70°
2026-04-26 19:18 57.54382 -172.75078 35774 ft 478 kts 70°
2026-04-26 19:18 57.56866 -172.63670 35781 ft 478 kts 70°
2026-04-26 19:19 57.59339 -172.52252 35789 ft 478 kts 71°
2026-04-26 19:19 57.61803 -172.40805 35801 ft 478 kts 71°
2026-04-26 19:20 57.64255 -172.29350 35810 ft 478 kts 71°
2026-04-26 19:20 57.66710 -172.17804 35829 ft 478 kts 72°
2026-04-26 19:21 57.69136 -172.06339 35829 ft 478 kts 72°
2026-04-26 19:21 57.71559 -171.94829 35833 ft 478 kts 72°
2026-04-26 19:22 57.73961 -171.83354 35846 ft 477 kts 72°
2026-04-26 19:22 57.76361 -171.71831 35860 ft 478 kts 72°
2026-04-26 19:23 57.78766 -171.60214 35863 ft 478 kts 72°
2026-04-26 19:23 57.81146 -171.48657 35883 ft 478 kts 72°
2026-04-26 19:24 57.83509 -171.37115 35886 ft 478 kts 72°
2026-04-26 19:24 57.87035 -171.19742 35896 ft 477 kts 73°
2026-04-26 19:25 57.88606 -171.11966 35896 ft 477 kts 73°
2026-04-26 19:25 57.91715 -170.96497 35907 ft 477 kts 73°
2026-04-26 19:26 57.94038 -170.84865 35917 ft 478 kts 73°
2026-04-26 19:26 57.96367 -170.73233 35925 ft 479 kts 72°
2026-04-26 19:27 57.98854 -170.61655 35939 ft 479 kts 71°
2026-04-26 19:27 58.01368 -170.50011 35958 ft 479 kts 71°
2026-04-26 19:28 58.03855 -170.38391 35950 ft 479 kts 71°
2026-04-26 19:28 58.06319 -170.26778 35988 ft 478 kts 72°
2026-04-26 19:29 58.08752 -170.15228 35989 ft 479 kts 72°
2026-04-26 19:29 58.11204 -170.03574 36001 ft 479 kts 72°
2026-04-26 19:30 58.13677 -169.91867 36003 ft 480 kts 72°
2026-04-26 19:30 58.15700 -169.82181 36006 ft 480 kts 72°
2026-04-26 19:31 58.18530 -169.68492 36036 ft 479 kts 72°
2026-04-26 19:31 58.20934 -169.56770 36052 ft 480 kts 73°
2026-04-26 19:32 58.23318 -169.45071 36064 ft 480 kts 72°
2026-04-26 19:32 58.25701 -169.33308 36077 ft 480 kts 73°
2026-04-26 19:33 58.28065 -169.21541 36078 ft 480 kts 73°
2026-04-26 19:33 58.30434 -169.09695 36085 ft 480 kts 73°
2026-04-26 19:34 58.32782 -168.97893 36092 ft 480 kts 73°
2026-04-26 19:34 58.35124 -168.86052 36104 ft 480 kts 73°
2026-04-26 19:35 58.37448 -168.74232 36123 ft 480 kts 73°
2026-04-26 19:35 58.39759 -168.62407 36121 ft 480 kts 73°
2026-04-26 19:36 58.41306 -168.54454 36138 ft 480 kts 73°
2026-04-26 19:36 58.44376 -168.38570 36154 ft 481 kts 73°
2026-04-26 19:37 58.46662 -168.26653 36154 ft 480 kts 75°
2026-04-26 19:37 58.48931 -168.14739 36170 ft 480 kts 75°
2026-04-26 19:38 58.51190 -168.02809 36185 ft 480 kts 75°
2026-04-26 19:38 58.53447 -167.90828 36186 ft 481 kts 75°
2026-04-26 19:39 58.55702 -167.78786 36198 ft 481 kts 75°
2026-04-26 19:39 58.57931 -167.66811 36216 ft 481 kts 75°
2026-04-26 19:40 58.60164 -167.54739 36226 ft 481 kts 75°
2026-04-26 19:40 58.62378 -167.42697 36234 ft 481 kts 75°
2026-04-26 19:41 58.66311 -167.21103 36248 ft 481 kts 76°
2026-04-26 19:41 58.69210 -167.05017 36258 ft 482 kts 76°
2026-04-26 19:42 58.75044 -166.72632 36275 ft 482 kts 75°
2026-04-26 19:42 58.79397 -166.48322 36293 ft 483 kts 75°
2026-04-26 19:43 58.83699 -166.23941 36312 ft 483 kts 76°
2026-04-26 19:43 58.87973 -165.99390 36334 ft 484 kts 76°
2026-04-26 19:44 58.92198 -165.74824 36346 ft 485 kts 76°
2026-04-26 19:44 58.96401 -165.50197 36351 ft 484 kts 76°
2026-04-26 19:45 59.00559 -165.25494 36364 ft 484 kts 77°
2026-04-26 19:45 59.04688 -165.00615 36381 ft 485 kts 77°
2026-04-26 19:46 59.08751 -164.75797 36401 ft 486 kts 77°
2026-04-26 19:46 59.12815 -164.50830 36398 ft 486 kts 77°
2026-04-26 19:47 59.15511 -164.34125 36413 ft 486 kts 78°
2026-04-26 19:47 59.20764 -164.00709 36420 ft 485 kts 78°
2026-04-26 19:48 59.25155 -163.72269 36439 ft 486 kts 78°
2026-04-26 19:48 59.27086 -163.59608 36445 ft 486 kts 78°
2026-04-26 19:49 59.29001 -163.46973 36451 ft 486 kts 78°
2026-04-26 19:49 59.31496 -163.30345 36464 ft 487 kts 79°
2026-04-26 19:50 59.35242 -163.05058 36477 ft 487 kts 79°
2026-04-26 19:50 59.38963 -162.79573 36487 ft 488 kts 79°
2026-04-26 19:51 59.42638 -162.54021 36506 ft 488 kts 79°
2026-04-26 19:51 59.46314 -162.28427 36508 ft 489 kts 78°
2026-04-26 19:52 59.49533 -162.09117 36513 ft 491 kts 76°
2026-04-26 19:52 59.51718 -161.96362 36515 ft 491 kts 77°
2026-04-26 19:53 59.55054 -161.76456 36533 ft 491 kts 77°
2026-04-26 19:53 59.59257 -161.50824 36546 ft 492 kts 77°
2026-04-26 19:54 59.63428 -161.24982 36540 ft 491 kts 78°
2026-04-26 19:54 59.67514 -160.99242 36531 ft 491 kts 78°
2026-04-26 19:55 59.71612 -160.73073 36542 ft 492 kts 78°
2026-04-26 19:55 59.75599 -160.47257 36528 ft 493 kts 78°
2026-04-26 19:56 59.79557 -160.21207 36526 ft 492 kts 79°
2026-04-26 19:56 59.83482 -159.94954 36532 ft 492 kts 79°
2026-04-26 19:57 59.87322 -159.68874 36555 ft 493 kts 79°
2026-04-26 19:57 59.91114 -159.42744 36618 ft 494 kts 79°
2026-04-26 19:58 59.95915 -159.08997 36627 ft 494 kts 79°
2026-04-26 19:58 60.10355 -158.02960 36684 ft 496 kts 80°
2026-04-26 19:59 60.24176 -156.94846 36737 ft 498 kts 81°
2026-04-26 19:59 60.37009 -155.85840 36759 ft 499 kts 81°
2026-04-26 20:00 60.41847 -155.42540 36785 ft 499 kts 81°
2026-04-26 20:00 60.43357 -155.28731 36647 ft 500 kts 82°
2026-04-26 20:01 60.44107 -155.21820 36444 ft 498 kts 82°
2026-04-26 20:01 60.44844 -155.14996 36251 ft 496 kts 82°
2026-04-26 20:01 60.45568 -155.08261 36047 ft 494 kts 82°
2026-04-26 20:01 60.46292 -155.01494 35846 ft 492 kts 82°
2026-04-26 20:02 60.47017 -154.94685 35557 ft 492 kts 82°
2026-04-26 20:02 60.47730 -154.87933 35111 ft 494 kts 83°
2026-04-26 20:02 60.48440 -154.81175 34529 ft 498 kts 83°
2026-04-26 20:02 60.48922 -154.76575 34062 ft 502 kts 83°
2026-04-26 20:03 60.49900 -154.67346 33005 ft 510 kts 81°
2026-04-26 20:03 60.50773 -154.60344 32251 ft 513 kts 80°
2026-04-26 20:03 60.51682 -154.53346 31487 ft 516 kts 79°
2026-04-26 20:03 60.52609 -154.46277 30710 ft 517 kts 79°
2026-04-26 20:04 60.53522 -154.39270 29904 ft 518 kts 79°
2026-04-26 20:04 60.54431 -154.32250 29108 ft 517 kts 79°
2026-04-26 20:04 60.55332 -154.25246 28309 ft 517 kts 79°
2026-04-26 20:04 60.56241 -154.18133 27561 ft 514 kts 79°
2026-04-26 20:05 60.57135 -154.11116 27019 ft 508 kts 79°
2026-04-26 20:05 60.58013 -154.04202 26453 ft 503 kts 79°
2026-04-26 20:05 60.58877 -153.97353 25883 ft 499 kts 78°
2026-04-26 20:05 60.59729 -153.90558 25306 ft 496 kts 78°
2026-04-26 20:06 60.60569 -153.83843 24748 ft 492 kts 78°
2026-04-26 20:06 60.61406 -153.77122 24191 ft 489 kts 78°
2026-04-26 20:06 60.62223 -153.70464 23644 ft 485 kts 78°
2026-04-26 20:06 60.63025 -153.63893 23124 ft 482 kts 78°
2026-04-26 20:07 60.63870 -153.57291 22618 ft 478 kts 77°
2026-04-26 20:07 60.64757 -153.50745 22187 ft 473 kts 76°
2026-04-26 20:07 60.65635 -153.44325 21685 ft 469 kts 76°
2026-04-26 20:07 60.66501 -153.37997 21149 ft 466 kts 76°
2026-04-26 20:08 60.67366 -153.31615 20662 ft 461 kts 77°
2026-04-26 20:08 60.68204 -153.25383 20264 ft 455 kts 77°
2026-04-26 20:08 60.69040 -153.19135 19899 ft 448 kts 77°
2026-04-26 20:08 60.69875 -153.12868 19502 ft 442 kts 77°
2026-04-26 20:09 60.70674 -153.06848 19131 ft 436 kts 77°
2026-04-26 20:09 60.71467 -153.00835 18762 ft 431 kts 78°
2026-04-26 20:09 60.72234 -152.95009 18405 ft 426 kts 77°
2026-04-26 20:09 60.73001 -152.89149 18040 ft 422 kts 77°
2026-04-26 20:10 60.73766 -152.83279 17664 ft 418 kts 77°
2026-04-26 20:10 60.74506 -152.77583 17288 ft 414 kts 77°
2026-04-26 20:10 60.75252 -152.71831 16895 ft 411 kts 77°
2026-04-26 20:10 60.75984 -152.66159 16553 ft 406 kts 77°
2026-04-26 20:11 60.76702 -152.60577 16213 ft 402 kts 77°
2026-04-26 20:11 60.77407 -152.55077 15876 ft 398 kts 78°
2026-04-26 20:11 60.78101 -152.49634 15518 ft 395 kts 77°
2026-04-26 20:12 60.79464 -152.38896 14830 ft 389 kts 77°
2026-04-26 20:12 60.80143 -152.33517 14498 ft 385 kts 78°
2026-04-26 20:12 60.80804 -152.28261 14133 ft 382 kts 78°
2026-04-26 20:12 60.81456 -152.23039 13851 ft 380 kts 78°
2026-04-26 20:13 60.82108 -152.17802 13474 ft 377 kts 79°
2026-04-26 20:13 60.82745 -152.12682 13146 ft 373 kts 78°
2026-04-26 20:13 60.83380 -152.07565 12858 ft 370 kts 78°
2026-04-26 20:13 60.84013 -152.02444 12497 ft 366 kts 79°
2026-04-26 20:14 60.84633 -151.97418 12186 ft 363 kts 79°
2026-04-26 20:14 60.85260 -151.92310 11835 ft 360 kts 79°
2026-04-26 20:14 60.85868 -151.87338 11495 ft 357 kts 79°
2026-04-26 20:14 60.86462 -151.82463 11162 ft 354 kts 78°
2026-04-26 20:15 60.87059 -151.77544 10818 ft 351 kts 79°
2026-04-26 20:15 60.87649 -151.72679 10486 ft 347 kts 79°
2026-04-26 20:15 60.88226 -151.67894 10186 ft 342 kts 79°
2026-04-26 20:15 60.88784 -151.63283 10166 ft 327 kts 79°
2026-04-26 20:16 60.89319 -151.58852 10126 ft 314 kts 79°
2026-04-26 20:16 60.89829 -151.54601 10079 ft 300 kts 79°
2026-04-26 20:16 60.90328 -151.50430 10050 ft 287 kts 79°
2026-04-26 20:16 60.90793 -151.46533 10010 ft 275 kts 79°
2026-04-26 20:17 60.91237 -151.42798 9982 ft 268 kts 79°
2026-04-26 20:17 60.91673 -151.39085 9881 ft 267 kts 79°
2026-04-26 20:17 60.92107 -151.35391 9595 ft 266 kts 79°
2026-04-26 20:17 60.92397 -151.32913 9404 ft 265 kts 80°
2026-04-26 20:18 60.92973 -151.28009 9069 ft 262 kts 80°
2026-04-26 20:18 60.93399 -151.24353 8808 ft 261 kts 80°
2026-04-26 20:18 60.93821 -151.20735 8551 ft 258 kts 80°
2026-04-26 20:18 60.94232 -151.17195 8317 ft 256 kts 80°
2026-04-26 20:19 60.94644 -151.13647 8069 ft 255 kts 80°
2026-04-26 20:19 60.95129 -151.10113 7767 ft 257 kts 69°
2026-04-26 20:19 60.96095 -151.06963 7457 ft 262 kts 50°
2026-04-26 20:19 60.97409 -151.04358 7169 ft 264 kts 45°
2026-04-26 20:20 60.98780 -151.01845 6859 ft 264 kts 44°
2026-04-26 20:20 61.00144 -150.99358 6555 ft 264 kts 44°
2026-04-26 20:20 61.01532 -150.96803 6263 ft 264 kts 44°
2026-04-26 20:20 61.02921 -150.94225 5954 ft 264 kts 44°
2026-04-26 20:21 61.04265 -150.91717 5659 ft 263 kts 44°
2026-04-26 20:21 61.05631 -150.89159 5355 ft 263 kts 44°
2026-04-26 20:21 61.06976 -150.86636 5053 ft 263 kts 44°
2026-04-26 20:21 61.08325 -150.84100 4756 ft 262 kts 44°
2026-04-26 20:22 61.09694 -150.81519 4450 ft 262 kts 44°
2026-04-26 20:22 61.11044 -150.78984 4144 ft 261 kts 44°
2026-04-26 20:22 61.12376 -150.76492 3852 ft 260 kts 44°
2026-04-26 20:22 61.13712 -150.73979 3557 ft 259 kts 46°
2026-04-26 20:23 61.14814 -150.71056 3249 ft 255 kts 64°
2026-04-26 20:23 61.15479 -150.67685 3046 ft 252 kts 73°
2026-04-26 20:23 61.16045 -150.64149 2998 ft 255 kts 74°
2026-04-26 20:23 61.16465 -150.60620 2991 ft 252 kts 83°
2026-04-26 20:24 61.16636 -150.57120 2983 ft 239 kts 86°
2026-04-26 20:24 61.16768 -150.53784 2977 ft 225 kts 88°
2026-04-26 20:24 61.16839 -150.50572 2993 ft 217 kts 90°
2026-04-26 20:24 61.16865 -150.47498 2985 ft 201 kts 91°
2026-04-26 20:25 61.16867 -150.44736 2952 ft 189 kts 91°
2026-04-26 20:25 61.16862 -150.42925 2954 ft 188 kts 92°
2026-04-26 20:25 61.16846 -150.39323 2980 ft 188 kts 92°
2026-04-26 20:25 61.16833 -150.36604 2990 ft 188 kts 92°
2026-04-26 20:26 61.16822 -150.33838 2960 ft 189 kts 92°
2026-04-26 20:26 61.16813 -150.31070 2742 ft 188 kts 92°
2026-04-26 20:26 61.16806 -150.28351 2288 ft 197 kts 92°
2026-04-26 20:26 61.16794 -150.25494 1895 ft 197 kts 92°
2026-04-26 20:27 61.16775 -150.22733 1733 ft 186 kts 91°
2026-04-26 20:27 61.16791 -150.20056 1578 ft 184 kts 90°
2026-04-26 20:27 61.16819 -150.17502 1356 ft 173 kts 91°
2026-04-26 20:27 61.16798 -150.15056 1080 ft 165 kts 94°
2026-04-26 20:28 61.16759 -150.12766 781 ft 158 kts 92°
2026-04-26 20:28 61.16744 -150.10495 486 ft 155 kts 91°
2026-04-26 20:28 61.16759 -150.08287 338 ft 155 kts 90°
2026-04-26 20:28 61.16785 -150.06047 338 ft 155 kts 91°
2026-04-26 20:29 61.16787 -150.03818 196 ft 153 kts 91°
2026-04-26 20:29 61.16781 -150.01775 169 ft 115 kts 90°
2026-04-26 20:29 61.16779 -150.00560 169 ft 50 kts 89°
2026-04-26 20:29 61.16783 -150.00092 168 ft 17 kts 89°
2026-04-26 20:30 61.16789 -149.99832 168 ft 18 kts 81°
2026-04-26 20:30 61.16830 -149.99573 168 ft 19 kts 59°
2026-04-26 20:30 61.16922 -149.99361 168 ft 20 kts 32°
2026-04-26 20:30 61.17048 -149.99205 168 ft 21 kts 33°
2026-04-26 20:31 61.17165 -149.98999 168 ft 22 kts 47°
2026-04-26 20:31 61.17274 -149.98752 168 ft 23 kts 44°
2026-04-26 20:31 61.17376 -149.98526 168 ft 10 kts 83°
2026-04-26 20:31 61.17361 -149.98448 168 ft 0 kts 107°